Multibeam Report for KRY13_04


Ship Name: Keary
Chief Scientist: Cullen, Sean
Source Organization: Geological Survey of Ireland (GSI)
Start Date: 2013-07-08
End Date: 2013-07-21


View ISO Metadata

Visit the full NCEI Bathymetry Viewer


Multibeam Bathymetry

Cruise Details

Project: INFOMAR
Instrument: Kongsberg EM2040D

Data Quality

Number of Files: 305
Number of Records: 2886130
BATHYMETRY DATA Quantity Percentage
Number of Beams 1153717600 100%
Number of Good Beams 1104650771 95.75%
Number of Zero Beams 0 0%
Number of Flagged Beams 49066829 4.25%
AMPLITUDE DATA Quantity Percentage
Number of Beams 1153717600 100%
Number of Good Beams 1104650771 95.75%
Number of Zero Beams 0 0%
Number of Flagged Beams 49066829 4.25%
SIDESCAN DATA Quantity Percentage
Number of Pixels 2953517056 100%
Number of Good Pixels 1270566787 43.02%
Number of Zero Pixels 0 0%
Number of Flagged Pixels 1682950269 56.98%

Navigation Totals

Total Time: 59.6185 hours
Total Track Length: 758.684 km
Average Speed: 12.726 km/hr (6.8715 knots)

Cruise Bounds

Northern Extent: 52.13815
Southern Extent: 51.92749
Western Extent: -10.707778
Eastern Extent: -10.230033

Limits

Minimum Sonar Depth 0.878 Maximum Sonar Depth 3.203
Minimum Altitude 0.0676 Maximum Altitude 194.479
Minimum Depth 1.5857 Maximum Depth 196.7211
Minimum Amplitude 0 Maximum Amplitude 24.1
Minimum Sidescan 0 Maximum Sidescan 29.2

File Information

Full Resolution Bathymetry as collected (raw): 302

Files File Size Description
0001_20130708_111600_Keary.all.mb58.gz 196.50MB Kongsberg multibeam vendor format
0002_20130708_113431_Keary.all.mb58.gz 480.05MB Kongsberg multibeam vendor format
0003_20130708_120944_Keary.all.mb58.gz 576.39MB Kongsberg multibeam vendor format
0004_20130708_123944_Keary.all.mb58.gz 130.29MB Kongsberg multibeam vendor format
0004_20130708_125534_Keary.all.mb58.gz 380.02MB Kongsberg multibeam vendor format
0005_20130708_132338_Keary.all.mb58.gz 56.13MB Kongsberg multibeam vendor format
0006_20130708_145129_Keary.all.mb58.gz 608.39MB Kongsberg multibeam vendor format
0007_20130708_152129_Keary.all.mb58.gz 91.39MB Kongsberg multibeam vendor format
0007_20130708_153208_Keary.all.mb58.gz 445.41MB Kongsberg multibeam vendor format
0008_20130708_160219_Keary.all.mb58.gz 404.44MB Kongsberg multibeam vendor format
0009_20130708_163130_Keary.all.mb58.gz 698.30MB Kongsberg multibeam vendor format
0010_20130708_170131_Keary.all.mb58.gz 292.07MB Kongsberg multibeam vendor format
0010_20130708_172704_Keary.all.mb58.gz 495.74MB Kongsberg multibeam vendor format
0011_20130708_175326_Keary.all.mb58.gz 422.40MB Kongsberg multibeam vendor format
0012_20130709_085033_Keary.all.mb58.gz 290.57MB Kongsberg multibeam vendor format
0013_20130709_091426_Keary.all.mb58.gz 311.58MB Kongsberg multibeam vendor format
0014_20130709_094619_Keary.all.mb58.gz 317.91MB Kongsberg multibeam vendor format
0015_20130709_100754_Keary.all.mb58.gz 353.95MB Kongsberg multibeam vendor format
0016_20130709_102841_Keary.all.mb58.gz 339.26MB Kongsberg multibeam vendor format
0017_20130709_104948_Keary.all.mb58.gz 351.72MB Kongsberg multibeam vendor format
0018_20130709_111607_Keary.all.mb58.gz 435.26MB Kongsberg multibeam vendor format
0019_20130709_113607_Keary.all.mb58.gz 420.38MB Kongsberg multibeam vendor format
0020_20130709_115732_Keary.all.mb58.gz 346.34MB Kongsberg multibeam vendor format
0021_20130709_122250_Keary.all.mb58.gz 318.59MB Kongsberg multibeam vendor format
0022_20130709_133232_Keary.all.mb58.gz 422.39MB Kongsberg multibeam vendor format
0023_20130709_135125_Keary.all.mb58.gz 367.51MB Kongsberg multibeam vendor format
0024_20130709_141642_Keary.all.mb58.gz 568.96MB Kongsberg multibeam vendor format
0025_20130709_143937_Keary.all.mb58.gz 553.11MB Kongsberg multibeam vendor format
0026_20130709_145644_Keary.all.mb58.gz 506.12MB Kongsberg multibeam vendor format
0027_20130709_151041_Keary.all.mb58.gz 412.99MB Kongsberg multibeam vendor format
0028_20130709_152721_Keary.all.mb58.gz 494.09MB Kongsberg multibeam vendor format
0029_20130709_154325_Keary.all.mb58.gz 393.69MB Kongsberg multibeam vendor format
0030_20130710_113408_Keary.all.mb58.gz 149.82MB Kongsberg multibeam vendor format
0031_20130710_114422_Keary.all.mb58.gz 177.16MB Kongsberg multibeam vendor format
0032_20130710_115921_Keary.all.mb58.gz 347.14MB Kongsberg multibeam vendor format
0033_20130710_122424_Keary.all.mb58.gz 357.25MB Kongsberg multibeam vendor format
0034_20130710_130803_Keary.all.mb58.gz 96.57MB Kongsberg multibeam vendor format
0035_20130710_131832_Keary.all.mb58.gz 313.11MB Kongsberg multibeam vendor format
0036_20130710_134420_Keary.all.mb58.gz 476.85MB Kongsberg multibeam vendor format
0037_20130710_141420_Keary.all.mb58.gz 19.79MB Kongsberg multibeam vendor format
0037_20130710_144250_Keary.all.mb58.gz 192.19MB Kongsberg multibeam vendor format
0038_20130710_145407_Keary.all.mb58.gz 223.09MB Kongsberg multibeam vendor format
0039_20130710_150616_Keary.all.mb58.gz 238.30MB Kongsberg multibeam vendor format
0040_20130710_152022_Keary.all.mb58.gz 206.82MB Kongsberg multibeam vendor format
0041_20130710_153033_Keary.all.mb58.gz 192.40MB Kongsberg multibeam vendor format
0042_20130710_153923_Keary.all.mb58.gz 220.30MB Kongsberg multibeam vendor format
0043_20130710_154902_Keary.all.mb58.gz 289.36MB Kongsberg multibeam vendor format
0044_20130710_155951_Keary.all.mb58.gz 193.08MB Kongsberg multibeam vendor format
0045_20130710_160756_Keary.all.mb58.gz 167.26MB Kongsberg multibeam vendor format
0046_20130710_161943_Keary.all.mb58.gz 326.66MB Kongsberg multibeam vendor format
0047_20130710_164135_Keary.all.mb58.gz 238.52MB Kongsberg multibeam vendor format
0048_20130710_170939_Keary.all.mb58.gz 127.23MB Kongsberg multibeam vendor format
0049_20130711_124203_Keary.all.mb58.gz 103.43MB Kongsberg multibeam vendor format
0050_20130711_124956_Keary.all.mb58.gz 100.96MB Kongsberg multibeam vendor format
0051_20130711_125731_Keary.all.mb58.gz 114.14MB Kongsberg multibeam vendor format
0052_20130711_130622_Keary.all.mb58.gz 101.96MB Kongsberg multibeam vendor format
0053_20130711_131355_Keary.all.mb58.gz 124.39MB Kongsberg multibeam vendor format
0054_20130711_132253_Keary.all.mb58.gz 113.51MB Kongsberg multibeam vendor format
0055_20130711_133038_Keary.all.mb58.gz 79.07MB Kongsberg multibeam vendor format
0056_20130711_133612_Keary.all.mb58.gz 200.39MB Kongsberg multibeam vendor format
0057_20130711_135113_Keary.all.mb58.gz 248.76MB Kongsberg multibeam vendor format
0058_20130711_140923_Keary.all.mb58.gz 122.07MB Kongsberg multibeam vendor format
0059_20130711_141727_Keary.all.mb58.gz 145.53MB Kongsberg multibeam vendor format
0060_20130711_145921_Keary.all.mb58.gz 104.28MB Kongsberg multibeam vendor format
0061_20130711_150616_Keary.all.mb58.gz 164.57MB Kongsberg multibeam vendor format
0062_20130711_151724_Keary.all.mb58.gz 152.87MB Kongsberg multibeam vendor format
0063_20130711_152826_Keary.all.mb58.gz 176.82MB Kongsberg multibeam vendor format
0064_20130711_153952_Keary.all.mb58.gz 103.05MB Kongsberg multibeam vendor format
0065_20130711_154838_Keary.all.mb58.gz 136.87MB Kongsberg multibeam vendor format
0066_20130711_160419_Keary.all.mb58.gz 89.60MB Kongsberg multibeam vendor format
0067_20130711_161225_Keary.all.mb58.gz 87.10MB Kongsberg multibeam vendor format
0068_20130711_161922_Keary.all.mb58.gz 75.55MB Kongsberg multibeam vendor format
0069_20130711_162517_Keary.all.mb58.gz 112.62MB Kongsberg multibeam vendor format
0070_20130711_163252_Keary.all.mb58.gz 87.72MB Kongsberg multibeam vendor format
0071_20130711_163913_Keary.all.mb58.gz 178.46MB Kongsberg multibeam vendor format
0072_20130711_165624_Keary.all.mb58.gz 180.62MB Kongsberg multibeam vendor format
0073_20130711_171213_Keary.all.mb58.gz 78.42MB Kongsberg multibeam vendor format
0074_20130711_171628_Keary.all.mb58.gz 71.93MB Kongsberg multibeam vendor format
0075_20130711_172016_Keary.all.mb58.gz 80.90MB Kongsberg multibeam vendor format
0076_20130711_172437_Keary.all.mb58.gz 85.12MB Kongsberg multibeam vendor format
0077_20130711_172951_Keary.all.mb58.gz 53.76MB Kongsberg multibeam vendor format
0078_20130711_173313_Keary.all.mb58.gz 52.12MB Kongsberg multibeam vendor format
0079_20130711_173617_Keary.all.mb58.gz 31.41MB Kongsberg multibeam vendor format
0080_20130712_094723_Keary.all.mb58.gz 523.54MB Kongsberg multibeam vendor format
0081_20130712_101723_Keary.all.mb58.gz 406.12MB Kongsberg multibeam vendor format
0082_20130712_104723_Keary.all.mb58.gz 421.51MB Kongsberg multibeam vendor format
0083_20130712_111724_Keary.all.mb58.gz 280.09MB Kongsberg multibeam vendor format
0084_20130712_114603_Keary.all.mb58.gz 227.96MB Kongsberg multibeam vendor format
0085_20130712_121208_Keary.all.mb58.gz 259.67MB Kongsberg multibeam vendor format
0086_20130712_123652_Keary.all.mb58.gz 263.97MB Kongsberg multibeam vendor format
0087_20130712_130531_Keary.all.mb58.gz 157.52MB Kongsberg multibeam vendor format
0088_20130712_132359_Keary.all.mb58.gz 189.23MB Kongsberg multibeam vendor format
0089_20130712_134537_Keary.all.mb58.gz 162.2KB Kongsberg multibeam vendor format
0090_20130712_134542_Keary.all.mb58.gz 357.36MB Kongsberg multibeam vendor format
0091_20130712_141542_Keary.all.mb58.gz 76.86MB Kongsberg multibeam vendor format
0092_20130712_142919_Keary.all.mb58.gz 157.85MB Kongsberg multibeam vendor format
0093_20130712_144401_Keary.all.mb58.gz 131.84MB Kongsberg multibeam vendor format
0094_20130712_145553_Keary.all.mb58.gz 367.88MB Kongsberg multibeam vendor format
0095_20130712_152232_Keary.all.mb58.gz 257.72MB Kongsberg multibeam vendor format
0095_20130713_111822_Keary.all.mb58.gz 318.77MB Kongsberg multibeam vendor format
0096_20130712_155320_Keary.all.mb58.gz 189.52MB Kongsberg multibeam vendor format
0096_20130713_114047_Keary.all.mb58.gz 382.24MB Kongsberg multibeam vendor format
0097_20130712_162421_Keary.all.mb58.gz 226.90MB Kongsberg multibeam vendor format
0097_20130713_121047_Keary.all.mb58.gz 318.16MB Kongsberg multibeam vendor format
0098_20130712_170328_Keary.all.mb58.gz 230.93MB Kongsberg multibeam vendor format
0098_20130713_124048_Keary.all.mb58.gz 198.74MB Kongsberg multibeam vendor format
0099_20130712_173048_Keary.all.mb58.gz 98.59MB Kongsberg multibeam vendor format
0099_20130713_125807_Keary.all.mb58.gz 80.21MB Kongsberg multibeam vendor format
0100_20130713_132818_Keary.all.mb58.gz 127.11MB Kongsberg multibeam vendor format
0101_20130713_133921_Keary.all.mb58.gz 78.82MB Kongsberg multibeam vendor format
0102_20130713_134510_Keary.all.mb58.gz 75.13MB Kongsberg multibeam vendor format
0103_20130713_151054_Keary.all.mb58.gz 39.79MB Kongsberg multibeam vendor format
0104_20130713_151536_Keary.all.mb58.gz 35.76MB Kongsberg multibeam vendor format
0105_20130713_152134_Keary.all.mb58.gz 156.16MB Kongsberg multibeam vendor format
0106_20130713_153855_Keary.all.mb58.gz 103.35MB Kongsberg multibeam vendor format
0107_20130713_154709_Keary.all.mb58.gz 114.42MB Kongsberg multibeam vendor format
0108_20130713_155515_Keary.all.mb58.gz 101.73MB Kongsberg multibeam vendor format
0109_20130713_160234_Keary.all.mb58.gz 140.23MB Kongsberg multibeam vendor format
0110_20130713_161925_Keary.all.mb58.gz 157.17MB Kongsberg multibeam vendor format
0111_20130713_163207_Keary.all.mb58.gz 182.72MB Kongsberg multibeam vendor format
0112_20130713_164411_Keary.all.mb58.gz 126.29MB Kongsberg multibeam vendor format
0113_20130713_165213_Keary.all.mb58.gz 60.46MB Kongsberg multibeam vendor format
0114_20130713_165723_Keary.all.mb58.gz 87.18MB Kongsberg multibeam vendor format
0115_20130713_170808_Keary.all.mb58.gz 127.83MB Kongsberg multibeam vendor format
0116_20130713_171634_Keary.all.mb58.gz 122.76MB Kongsberg multibeam vendor format
0117_20130713_172504_Keary.all.mb58.gz 127.29MB Kongsberg multibeam vendor format
0118_20130713_173256_Keary.all.mb58.gz 85.86MB Kongsberg multibeam vendor format
0119_20130713_173824_Keary.all.mb58.gz 111.87MB Kongsberg multibeam vendor format
0120_20130713_174615_Keary.all.mb58.gz 74.07MB Kongsberg multibeam vendor format
0120_20130714_094950_Keary.all.mb58.gz 389.26MB Kongsberg multibeam vendor format
0121_20130713_175104_Keary.all.mb58.gz 222.40MB Kongsberg multibeam vendor format
0121_20130714_102615_Keary.all.mb58.gz 318.20MB Kongsberg multibeam vendor format
0122_20130714_112419_Keary.all.mb58.gz 340.86MB Kongsberg multibeam vendor format
0123_20130714_115419_Keary.all.mb58.gz 340.77MB Kongsberg multibeam vendor format
0124_20130714_122419_Keary.all.mb58.gz 155.13MB Kongsberg multibeam vendor format
0125_20130714_130822_Keary.all.mb58.gz 39.16MB Kongsberg multibeam vendor format
0126_20130714_131320_Keary.all.mb58.gz 49.67MB Kongsberg multibeam vendor format
0127_20130714_132434_Keary.all.mb58.gz 378.10MB Kongsberg multibeam vendor format
0128_20130714_140520_Keary.all.mb58.gz 232.73MB Kongsberg multibeam vendor format
0129_20130714_142948_Keary.all.mb58.gz 236.63MB Kongsberg multibeam vendor format
0130_20130714_145627_Keary.all.mb58.gz 218.44MB Kongsberg multibeam vendor format
0131_20130714_162344_Keary.all.mb58.gz 273.81MB Kongsberg multibeam vendor format
0132_20130714_165218_Keary.all.mb58.gz 120.82MB Kongsberg multibeam vendor format
0133_20130714_170722_Keary.all.mb58.gz 63.10MB Kongsberg multibeam vendor format
0134_20130714_171435_Keary.all.mb58.gz 69.40MB Kongsberg multibeam vendor format
0135_20130714_172247_Keary.all.mb58.gz 30.71MB Kongsberg multibeam vendor format
0136_20130714_172635_Keary.all.mb58.gz 87.69MB Kongsberg multibeam vendor format
0137_20130714_173336_Keary.all.mb58.gz 33.11MB Kongsberg multibeam vendor format
0138_20130714_173606_Keary.all.mb58.gz 31.44MB Kongsberg multibeam vendor format
0139_20130714_175130_Keary.all.mb58.gz 219.61MB Kongsberg multibeam vendor format
0139_20130715_095822_Keary.all.mb58.gz 171.16MB Kongsberg multibeam vendor format
0140_20130714_182728_Keary.all.mb58.gz 126.60MB Kongsberg multibeam vendor format
0140_20130715_100858_Keary.all.mb58.gz 67.22MB Kongsberg multibeam vendor format
0141_20130715_101329_Keary.all.mb58.gz 137.48MB Kongsberg multibeam vendor format
0142_20130715_104448_Keary.all.mb58.gz 107.84MB Kongsberg multibeam vendor format
0143_20130715_104953_Keary.all.mb58.gz 29.78MB Kongsberg multibeam vendor format
0144_20130715_105622_Keary.all.mb58.gz 58.18MB Kongsberg multibeam vendor format
0145_20130715_105950_Keary.all.mb58.gz 60.21MB Kongsberg multibeam vendor format
0146_20130715_110520_Keary.all.mb58.gz 110.54MB Kongsberg multibeam vendor format
0147_20130715_111452_Keary.all.mb58.gz 47.96MB Kongsberg multibeam vendor format
0148_20130715_112020_Keary.all.mb58.gz 481.67MB Kongsberg multibeam vendor format
0149_20130715_115346_Keary.all.mb58.gz 193.26MB Kongsberg multibeam vendor format
0150_20130715_120030_Keary.all.mb58.gz 133.13MB Kongsberg multibeam vendor format
0151_20130715_120546_Keary.all.mb58.gz 517.25MB Kongsberg multibeam vendor format
0152_20130715_122657_Keary.all.mb58.gz 166.10MB Kongsberg multibeam vendor format
0153_20130715_124105_Keary.all.mb58.gz 91.46MB Kongsberg multibeam vendor format
0154_20130715_124857_Keary.all.mb58.gz 270.32MB Kongsberg multibeam vendor format
0155_20130715_130211_Keary.all.mb58.gz 220.69MB Kongsberg multibeam vendor format
0156_20130715_132528_Keary.all.mb58.gz 94.76MB Kongsberg multibeam vendor format
0157_20130715_133025_Keary.all.mb58.gz 89.12MB Kongsberg multibeam vendor format
0158_20130715_133451_Keary.all.mb58.gz 88.28MB Kongsberg multibeam vendor format
0159_20130715_134012_Keary.all.mb58.gz 74.78MB Kongsberg multibeam vendor format
0160_20130715_141543_Keary.all.mb58.gz 176.74MB Kongsberg multibeam vendor format
0161_20130715_143113_Keary.all.mb58.gz 293.86MB Kongsberg multibeam vendor format
0162_20130715_144515_Keary.all.mb58.gz 450.14MB Kongsberg multibeam vendor format
0163_20130715_150338_Keary.all.mb58.gz 49.01MB Kongsberg multibeam vendor format
0164_20130715_151239_Keary.all.mb58.gz 155.77MB Kongsberg multibeam vendor format
0165_20130715_160336_Keary.all.mb58.gz 514.28MB Kongsberg multibeam vendor format
0166_20130715_163336_Keary.all.mb58.gz 1005.01MB Kongsberg multibeam vendor format
0167_20130715_170336_Keary.all.mb58.gz 73.97MB Kongsberg multibeam vendor format
0168_20130716_145418_Keary.all.mb58.gz 112.97MB Kongsberg multibeam vendor format
0169_20130716_155056_Keary.all.mb58.gz 406.64MB Kongsberg multibeam vendor format
0170_20130717_083201_Keary.all.mb58.gz 560.29MB Kongsberg multibeam vendor format
0171_20130717_090201_Keary.all.mb58.gz 283.76MB Kongsberg multibeam vendor format
0172_20130717_094104_Keary.all.mb58.gz 354.40MB Kongsberg multibeam vendor format
0173_20130717_101104_Keary.all.mb58.gz 256.46MB Kongsberg multibeam vendor format
0174_20130717_105948_Keary.all.mb58.gz 300.52MB Kongsberg multibeam vendor format
0175_20130717_112948_Keary.all.mb58.gz 77.95MB Kongsberg multibeam vendor format
0175_20130717_113823_Keary.all.mb58.gz 90.67MB Kongsberg multibeam vendor format
0176_20130717_120424_Keary.all.mb58.gz 178.44MB Kongsberg multibeam vendor format
0177_20130717_122515_Keary.all.mb58.gz 165.37MB Kongsberg multibeam vendor format
0178_20130717_124451_Keary.all.mb58.gz 85.00MB Kongsberg multibeam vendor format
0179_20130717_130427_Keary.all.mb58.gz 92.33MB Kongsberg multibeam vendor format
0180_20130717_132530_Keary.all.mb58.gz 175.02MB Kongsberg multibeam vendor format
0181_20130717_134521_Keary.all.mb58.gz 163.35MB Kongsberg multibeam vendor format
0182_20130717_140427_Keary.all.mb58.gz 181.35MB Kongsberg multibeam vendor format
0183_20130717_143349_Keary.all.mb58.gz 178.31MB Kongsberg multibeam vendor format
0184_20130717_150416_Keary.all.mb58.gz 104.41MB Kongsberg multibeam vendor format
0185_20130717_152537_Keary.all.mb58.gz 117.12MB Kongsberg multibeam vendor format
0186_20130717_153708_Keary.all.mb58.gz 108.74MB Kongsberg multibeam vendor format
0187_20130717_154928_Keary.all.mb58.gz 107.13MB Kongsberg multibeam vendor format
0188_20130717_155838_Keary.all.mb58.gz 90.36MB Kongsberg multibeam vendor format
0189_20130717_160503_Keary.all.mb58.gz 68.64MB Kongsberg multibeam vendor format
0190_20130717_161208_Keary.all.mb58.gz 40.86MB Kongsberg multibeam vendor format
0191_20130717_161535_Keary.all.mb58.gz 51.80MB Kongsberg multibeam vendor format
0192_20130717_161932_Keary.all.mb58.gz 32.46MB Kongsberg multibeam vendor format
0193_20130717_164007_Keary.all.mb58.gz 125.32MB Kongsberg multibeam vendor format
0194_20130717_170750_Keary.all.mb58.gz 461.10MB Kongsberg multibeam vendor format
0195_20130718_082908_Keary.all.mb58.gz 574.40MB Kongsberg multibeam vendor format
0196_20130718_085909_Keary.all.mb58.gz 543.16MB Kongsberg multibeam vendor format
0197_20130718_092909_Keary.all.mb58.gz 106.77MB Kongsberg multibeam vendor format
0198_20130718_095523_Keary.all.mb58.gz 213.29MB Kongsberg multibeam vendor format
0199_20130718_101544_Keary.all.mb58.gz 777.39MB Kongsberg multibeam vendor format
0200_20130718_104557_Keary.all.mb58.gz 128.92MB Kongsberg multibeam vendor format
0201_20130718_111211_Keary.all.mb58.gz 121.37MB Kongsberg multibeam vendor format
0202_20130718_111646_Keary.all.mb58.gz 53.12MB Kongsberg multibeam vendor format
0203_20130718_112658_Keary.all.mb58.gz 184.35MB Kongsberg multibeam vendor format
0204_20130718_115229_Keary.all.mb58.gz 175.35MB Kongsberg multibeam vendor format
0205_20130718_120158_Keary.all.mb58.gz 93.62MB Kongsberg multibeam vendor format
0206_20130718_122202_Keary.all.mb58.gz 177.12MB Kongsberg multibeam vendor format
0207_20130718_123417_Keary.all.mb58.gz 247.95MB Kongsberg multibeam vendor format
0208_20130718_125712_Keary.all.mb58.gz 350.47MB Kongsberg multibeam vendor format
0209_20130718_131613_Keary.all.mb58.gz 165.06MB Kongsberg multibeam vendor format
0210_20130718_132508_Keary.all.mb58.gz 142.01MB Kongsberg multibeam vendor format
0211_20130718_133258_Keary.all.mb58.gz 140.92MB Kongsberg multibeam vendor format
0212_20130718_135959_Keary.all.mb58.gz 57.19MB Kongsberg multibeam vendor format
0213_20130718_140649_Keary.all.mb58.gz 199.47MB Kongsberg multibeam vendor format
0214_20130718_141732_Keary.all.mb58.gz 249.65MB Kongsberg multibeam vendor format
0215_20130718_143036_Keary.all.mb58.gz 163.10MB Kongsberg multibeam vendor format
0216_20130718_143913_Keary.all.mb58.gz 201.71MB Kongsberg multibeam vendor format
0217_20130718_150758_Keary.all.mb58.gz 62.63MB Kongsberg multibeam vendor format
0218_20130718_151518_Keary.all.mb58.gz 199.63MB Kongsberg multibeam vendor format
0219_20130718_152536_Keary.all.mb58.gz 188.69MB Kongsberg multibeam vendor format
0220_20130718_153626_Keary.all.mb58.gz 231.07MB Kongsberg multibeam vendor format
0221_20130718_154852_Keary.all.mb58.gz 218.41MB Kongsberg multibeam vendor format
0222_20130718_160008_Keary.all.mb58.gz 257.73MB Kongsberg multibeam vendor format
0223_20130718_161157_Keary.all.mb58.gz 181.71MB Kongsberg multibeam vendor format
0224_20130718_163823_Keary.all.mb58.gz 74.08MB Kongsberg multibeam vendor format
0225_20130718_165329_Keary.all.mb58.gz 279.75MB Kongsberg multibeam vendor format
0226_20130718_171757_Keary.all.mb58.gz 475.48MB Kongsberg multibeam vendor format
0227_20130718_174758_Keary.all.mb58.gz 457.53MB Kongsberg multibeam vendor format
0228_20130718_181758_Keary.all.mb58.gz 689.00MB Kongsberg multibeam vendor format
0229_20130719_124920_Keary.all.mb58.gz 454.01MB Kongsberg multibeam vendor format
0230_20130719_131921_Keary.all.mb58.gz 115.24MB Kongsberg multibeam vendor format
0230_20130719_133509_Keary.all.mb58.gz 444.29MB Kongsberg multibeam vendor format
0231_20130719_140509_Keary.all.mb58.gz 269.81MB Kongsberg multibeam vendor format
0232_20130719_144409_Keary.all.mb58.gz 166.16MB Kongsberg multibeam vendor format
0233_20130719_145806_Keary.all.mb58.gz 133.15MB Kongsberg multibeam vendor format
0234_20130719_150626_Keary.all.mb58.gz 70.51MB Kongsberg multibeam vendor format
0235_20130719_151105_Keary.all.mb58.gz 77.61MB Kongsberg multibeam vendor format
0236_20130719_151620_Keary.all.mb58.gz 103.35MB Kongsberg multibeam vendor format
0237_20130719_152210_Keary.all.mb58.gz 100.16MB Kongsberg multibeam vendor format
0238_20130719_152827_Keary.all.mb58.gz 144.59MB Kongsberg multibeam vendor format
0239_20130719_154851_Keary.all.mb58.gz 61.19MB Kongsberg multibeam vendor format
0240_20130719_155443_Keary.all.mb58.gz 40.89MB Kongsberg multibeam vendor format
0241_20130719_160010_Keary.all.mb58.gz 103.81MB Kongsberg multibeam vendor format
0242_20130719_162046_Keary.all.mb58.gz 123.47MB Kongsberg multibeam vendor format
0243_20130719_165847_Keary.all.mb58.gz 86.92MB Kongsberg multibeam vendor format
0244_20130719_171020_Keary.all.mb58.gz 476.78MB Kongsberg multibeam vendor format
0245_20130719_174021_Keary.all.mb58.gz 215.70MB Kongsberg multibeam vendor format
0246_20130720_094524_Keary.all.mb58.gz 618.27MB Kongsberg multibeam vendor format
0247_20130720_101525_Keary.all.mb58.gz 46.59MB Kongsberg multibeam vendor format
0248_20130720_102536_Keary.all.mb58.gz 412.46MB Kongsberg multibeam vendor format
0249_20130720_105537_Keary.all.mb58.gz 203.11MB Kongsberg multibeam vendor format
0250_20130720_111758_Keary.all.mb58.gz 542.53MB Kongsberg multibeam vendor format
0251_20130720_114602_Keary.all.mb58.gz 195.98MB Kongsberg multibeam vendor format
0252_20130720_115253_Keary.all.mb58.gz 192.00MB Kongsberg multibeam vendor format
0253_20130720_115921_Keary.all.mb58.gz 168.21MB Kongsberg multibeam vendor format
0254_20130720_122737_Keary.all.mb58.gz 315.29MB Kongsberg multibeam vendor format
0255_20130720_143200_Keary.all.mb58.gz 387.05MB Kongsberg multibeam vendor format
0256_20130720_150016_Keary.all.mb58.gz 394.61MB Kongsberg multibeam vendor format
0257_20130720_151121_Keary.all.mb58.gz 420.13MB Kongsberg multibeam vendor format
0258_20130720_152302_Keary.all.mb58.gz 290.59MB Kongsberg multibeam vendor format
0259_20130720_153112_Keary.all.mb58.gz 144.78MB Kongsberg multibeam vendor format
0260_20130720_153538_Keary.all.mb58.gz 182.78MB Kongsberg multibeam vendor format
0261_20130720_153956_Keary.all.mb58.gz 255.11MB Kongsberg multibeam vendor format
0262_20130720_154830_Keary.all.mb58.gz 290.64MB Kongsberg multibeam vendor format
0263_20130720_160007_Keary.all.mb58.gz 234.13MB Kongsberg multibeam vendor format
0264_20130720_160911_Keary.all.mb58.gz 286.51MB Kongsberg multibeam vendor format
0265_20130720_161746_Keary.all.mb58.gz 266.06MB Kongsberg multibeam vendor format
0266_20130720_162442_Keary.all.mb58.gz 351.66MB Kongsberg multibeam vendor format
0267_20130720_163321_Keary.all.mb58.gz 97.41MB Kongsberg multibeam vendor format
0268_20130720_163633_Keary.all.mb58.gz 73.18MB Kongsberg multibeam vendor format
0269_20130720_164502_Keary.all.mb58.gz 246.19MB Kongsberg multibeam vendor format
0270_20130720_165449_Keary.all.mb58.gz 162.05MB Kongsberg multibeam vendor format
0271_20130720_170800_Keary.all.mb58.gz 276.59MB Kongsberg multibeam vendor format
0272_20130720_174232_Keary.all.mb58.gz 377.93MB Kongsberg multibeam vendor format
0273_20130720_181233_Keary.all.mb58.gz 497.27MB Kongsberg multibeam vendor format
0274_20130720_184233_Keary.all.mb58.gz 173.41MB Kongsberg multibeam vendor format
0275_20130721_131457_Keary.all.mb58.gz 111.76MB Kongsberg multibeam vendor format
0276_20130721_134636_Keary.all.mb58.gz 134.99MB Kongsberg multibeam vendor format
0277_20130721_142031_Keary.all.mb58.gz 100.20MB Kongsberg multibeam vendor format
0278_20130721_143704_Keary.all.mb58.gz 260.83MB Kongsberg multibeam vendor format
0279_20130721_150416_Keary.all.mb58.gz 74.90MB Kongsberg multibeam vendor format
0280_20130721_151521_Keary.all.mb58.gz 639.37MB Kongsberg multibeam vendor format
0281_20130721_155554_Keary.all.mb58.gz 115.34MB Kongsberg multibeam vendor format
0282_20130721_161017_Keary.all.mb58.gz 583.37MB Kongsberg multibeam vendor format
0283_20130721_165535_Keary.all.mb58.gz 152.36MB Kongsberg multibeam vendor format
0284_20130721_170528_Keary.all.mb58.gz 192.94MB Kongsberg multibeam vendor format
0285_20130721_173339_Keary.all.mb58.gz 333.08MB Kongsberg multibeam vendor format
0286_20130721_180942_Keary.all.mb58.gz 275.82MB Kongsberg multibeam vendor format
9999.all.mb58.gz 1845.40MB Kongsberg multibeam vendor format

Metadata Files: 1

Files File Size Description
KRY13_04_Multibeam.xml NGDC created ISO metadata

Ancillary Files: 1

Files File Size Description
asvp.tar.gz 1.33MB Sound Speed Profiles (SSP or SVP)

Water Column Sonar Data

Water Column Sonar Data Available: WCSD Map Viewer